Flag for Falkland Islands Weather past 2 weeks in Stanley, Falkland Islands

Now
34 °F

Light rain. Partly cloudy.


Feels Like: 24 °F
Forecast: 36 / 44 °F
Wind: 15 mph from West

Location: Mount Pleasant Airport

Current Time: Aug 23, 2014 at 3:15:13 AM

Latest Report: Aug 23, 2014 at 2:50 AM


Visibility: 4 mi

Pressure: 30.15 "Hg

Humidity: 93%

Dew point: 32 °F

Location of StanleyLocation

Historic Weather in Stanley — Graph

°F

Stanley temperature yesterday

Maximum temperature yesterday: 41 °F (at 11:50 AM)
Minimum temperature yesterday: 34 °F (at 4:50 AM)
Average temperature yesterday: 37 °F

Past Weeks' High & Low Weather Summary

 TemperatureHumidityPressure
High48 °F (Aug 15, 11:50 AM)100% (Aug 8, 1:50 AM)30.12 "Hg (Aug 8, 1:50 AM)
Low27 °F (Aug 14, 7:50 AM)49% (Aug 9, 1:50 PM)28.94 "Hg (Aug 10, 5:50 AM)
Average37 °F83%29.49 "Hg
* Reported Aug 8 1:50 AM — Aug 23 1:50 AM, Stanley, Weather by CustomWeather, © 2014

Note: Actual official high and low records may vary slightly from our data, if they occured in-between our weather recording intervals... More about our weather records

Advertising

Stanley weather history for previous 24 hours

 ConditionsComfort  
Time TempWeatherWind HumidityBarometerVisibility
1:50 AM
Aug 23
34 °FOvercast.16 mph93%30.12 "HgN/A
12:50 AM34 °FOvercast.16 mph93%30.12 "HgN/A
11:50 PM
Aug 22
34 °FOvercast.13 mph93%30.12 "HgN/A
10:50 PM34 °FOvercast.14 mph93%30.12 "HgN/A
9:50 PM34 °FPassing clouds.14 mph93%30.09 "HgN/A
8:50 PM34 °FSprinkles. Passing clouds.13 mph93%30.09 "HgN/A
7:50 PM37 °FDrizzle. Mostly cloudy.13 mph93%30.09 "Hg4 mi
6:50 PM37 °FMostly cloudy.15 mph81%30.09 "HgN/A
5:50 PM39 °FOvercast.14 mph75%30.07 "HgN/A
4:50 PM39 °FPartly sunny.18 mph70%30.07 "HgN/A
3:50 PM41 °FPartly sunny.20 mph70%30.04 "HgN/A
2:50 PM41 °FLight rain. Partly sunny.20 mph70%30.04 "HgN/A
1:50 PM41 °FPartly sunny.18 mph81%30.04 "HgN/A
12:50 PM41 °FScattered clouds.20 mph76%30.04 "HgN/A
11:50 AM41 °FPartly sunny.20 mph81%30.04 "HgN/A
10:50 AM39 °FScattered clouds.20 mph93%30.04 "HgN/A
9:50 AM37 °FBroken clouds.18 mph93%30.04 "HgN/A
8:50 AM36 °FPassing clouds.17 mph100%30.04 "HgN/A
7:50 AM36 °FPassing clouds.18 mph93%30.01 "HgN/A
6:50 AM36 °FDrizzle. Mostly cloudy.20 mph93%30.01 "Hg2 mi
5:50 AM36 °FDrizzle. Overcast.20 mph93%30.01 "Hg2 mi
4:50 AM34 °FLight rain. Overcast.20 mph100%30.01 "Hg3 mi
3:50 AM36 °FSnow flurries. Overcast.20 mph87%29.98 "HgN/A
Weather by CustomWeather, © 2014

See weather overviewHow to use our weather pages